contact:dominique.lefevre@mio.osupytheas.fr, maurice.libes@osupytheas.fr, didier.mallarino@osupytheas.fr
Project:EMSO http://www.emso-fr.org/EMSO-France
Depth: 2436.0 m
Title:EMSO Ligure Ouest : Data MII capteur AQUADOPP
Date,Latitude,Longitude,X_East,Y_North,Z_Up,Amplitude_X,Amplitude_Y,Amplitude_Z,Batterie,SoundSpeed,Heading,Pitch,Roll,Pressure,TIS,Speed,Direction
, degrees North, degrees East, m.s-1, m.s-1,m.s-1, 1, 1, 1, Volt, m.s-1, degree, degree, degree, dbar, degree_C, m.s-1, degree
2019-06-02T00:00:00,42.805,6.029,-0.028,0.026,-0.002,101.0,107.0,102.0,13.4,1505.3,323.0,-0.8,1.8,2470.039,13.33,0.038,312.9
2019-06-02T00:04:03,42.805,6.029,-0.02,0.021,-0.025,101.0,109.0,98.0,13.3,1505.3,324.3,-0.7,1.9,2470.072,13.32,0.028,316.4
2019-06-02T00:07:04,42.805,6.029,-0.035,0.014,-0.045,100.0,107.0,100.0,13.3,1505.3,326.8,-0.8,1.9,2470.021,13.32,0.037,291.8
2019-06-02T00:10:05,42.805,6.029,-0.024,0.022,-0.011,103.0,109.0,98.0,13.3,1505.3,327.3,-0.7,1.9,2470.042,13.32,0.032,312.5
2019-06-02T00:13:06,42.805,6.029,-0.026,0.03,-0.024,102.0,111.0,98.0,13.4,1505.3,326.0,-0.8,1.9,2470.07,13.32,0.039,319.1
2019-06-02T00:16:07,42.805,6.029,-0.021,0.027,-0.037,101.0,106.0,98.0,13.3,1505.3,326.5,-0.7,1.9,2470.048,13.33,0.034,322.1
2019-06-02T00:19:08,42.805,6.029,-0.036,0.042,-0.004,103.0,108.0,99.0,13.4,1505.3,324.9,-0.8,1.9,2470.031,13.33,0.055,319.4
2019-06-02T00:22:09,42.805,6.029,-0.041,0.027,-0.026,101.0,108.0,97.0,13.4,1505.3,327.9,-0.8,1.8,2470.062,13.33,0.049,303.4
2019-06-02T00:25:10,42.805,6.029,-0.043,0.028,-0.025,101.0,109.0,98.0,13.3,1505.3,324.0,-0.7,1.8,2470.048,13.33,0.051,303.1
2019-06-02T00:28:11,42.805,6.029,-0.039,0.01,-0.051,100.0,108.0,98.0,13.4,1505.3,324.7,-0.7,1.8,2470.024,13.33,0.04,284.4
2019-06-02T00:31:12,42.805,6.029,-0.021,0.027,0.0,104.0,107.0,98.0,13.4,1505.3,326.1,-0.7,1.8,2470.06,13.33,0.034,322.1
2019-06-02T00:34:13,42.805,6.029,-0.04,0.037,-0.021,100.0,107.0,98.0,13.4,1505.3,325.5,-0.8,1.9,2470.058,13.33,0.054,312.8
2019-06-02T00:37:14,42.805,6.029,-0.028,0.035,0.022,101.0,109.0,97.0,13.4,1505.3,324.7,-0.8,1.9,2470.087,13.33,0.044,321.3
2019-06-02T00:40:15,42.805,6.029,-0.034,0.048,-0.018,102.0,111.0,98.0,13.4,1505.3,323.9,-0.8,1.8,2470.002,13.33,0.058,324.7
2019-06-02T00:43:16,42.805,6.029,-0.032,0.041,0.014,100.0,111.0,99.0,13.4,1505.3,324.9,-0.8,1.8,2470.054,13.33,0.052,322.0
2019-06-02T00:46:17,42.805,6.029,-0.011,0.045,0.025,100.0,109.0,99.0,13.4,1505.3,324.7,-0.8,1.8,2470.019,13.33,0.046,346.3
2019-06-02T00:49:18,42.805,6.029,-0.011,0.054,-0.004,98.0,110.0,99.0,13.4,1505.3,326.2,-0.8,1.9,2470.041,13.33,0.055,348.5
2019-06-02T00:52:19,42.805,6.029,-0.022,0.049,0.03,100.0,113.0,99.0,13.3,1505.3,326.2,-0.8,1.8,2470.033,13.33,0.053,335.8
2019-06-02T00:55:20,42.805,6.029,-0.035,0.036,0.008,101.0,111.0,98.0,13.4,1505.3,323.9,-0.8,1.9,2470.029,13.33,0.05,315.8
2019-06-02T00:58:21,42.805,6.029,-0.036,0.039,-0.035,100.0,109.0,101.0,13.3,1505.3,325.7,-0.7,1.8,2469.99,13.33,0.053,317.3
2019-06-02T01:01:22,42.805,6.029,-0.023,0.044,-0.016,100.0,109.0,98.0,13.4,1505.3,323.3,-0.8,1.8,2470.048,13.33,0.049,332.4
2019-06-02T01:04:23,42.805,6.029,-0.005,0.038,0.002,101.0,108.0,98.0,13.4,1505.3,324.9,-0.8,1.8,2470.003,13.33,0.038,352.5
2019-06-02T01:07:24,42.805,6.029,-0.056,0.043,-0.017,100.0,110.0,97.0,13.3,1505.3,323.7,-0.7,1.8,2470.066,13.33,0.07,307.5
2019-06-02T01:10:25,42.805,6.029,-0.022,0.015,0.002,100.0,108.0,99.0,13.4,1505.3,324.4,-0.8,1.9,2470.048,13.33,0.026,304.3
2019-06-02T01:13:26,42.805,6.029,-0.01,0.016,0.007,100.0,108.0,97.0,13.4,1505.3,324.7,-0.8,1.8,2470.027,13.33,0.018,328.0
2019-06-02T01:16:27,42.805,6.029,-0.006,0.016,-0.04,101.0,108.0,97.0,13.4,1505.3,326.6,-0.8,1.9,2469.97,13.33,0.017,339.4
2019-06-02T01:19:28,42.805,6.029,-0.015,0.029,-0.011,100.0,108.0,98.0,13.4,1505.3,324.5,-0.7,1.8,2470.049,13.33,0.032,332.6
2019-06-02T01:22:30,42.805,6.029,-0.016,0.0,-0.019,101.0,107.0,98.0,13.3,1505.3,324.1,-0.7,1.9,2470.077,13.33,0.016,270.0
2019-06-02T01:25:30,42.805,6.029,-0.02,0.044,0.001,99.0,106.0,99.0,13.4,1505.3,326.3,-0.7,1.9,2470.011,13.33,0.048,335.6
2019-06-02T01:28:31,42.805,6.029,-0.03,0.041,0.003,98.0,107.0,99.0,13.3,1505.3,326.0,-0.7,1.8,2470.021,13.33,0.05,323.8
2019-06-02T01:31:32,42.805,6.029,-0.059,0.037,-0.015,100.0,108.0,98.0,13.3,1505.3,326.2,-0.7,1.9,2470.057,13.33,0.069,302.1
2019-06-02T01:34:34,42.805,6.029,-0.017,0.065,-0.015,100.0,108.0,97.0,13.4,1505.3,325.3,-0.8,1.9,2470.017,13.33,0.067,345.3
2019-06-02T01:37:34,42.805,6.029,-0.037,0.038,-0.029,100.0,107.0,98.0,13.4,1505.3,324.1,-0.7,1.9,2470.055,13.33,0.053,315.8
2019-06-02T01:40:36,42.805,6.029,-0.055,0.024,-0.019,99.0,108.0,99.0,13.4,1505.3,324.1,-0.8,1.8,2470.052,13.33,0.06,293.6
2019-06-02T01:43:37,42.805,6.029,-0.013,0.018,-0.012,102.0,106.0,97.0,13.4,1505.3,326.3,-0.8,1.8,2470.052,13.33,0.022,324.2
2019-06-02T01:46:38,42.805,6.029,-0.032,0.022,-0.055,101.0,106.0,97.0,13.4,1505.3,326.4,-0.8,1.8,2470.02,13.33,0.038,304.5
2019-06-02T01:49:39,42.805,6.029,-0.032,0.029,-0.023,102.0,105.0,97.0,13.4,1505.3,326.6,-0.7,1.9,2470.026,13.33,0.043,312.2
2019-06-02T01:52:40,42.805,6.029,-0.02,0.031,-0.004,100.0,106.0,97.0,13.4,1505.3,327.9,-0.7,1.9,2470.04,13.33,0.036,327.2
2019-06-02T01:55:41,42.805,6.029,-0.029,0.045,0.009,102.0,107.0,99.0,13.3,1505.3,326.8,-0.8,1.8,2470.051,13.33,0.053,327.2
2019-06-02T01:58:42,42.805,6.029,-0.03,0.029,-0.043,102.0,105.0,98.0,13.3,1505.3,327.5,-0.8,1.9,2470.059,13.33,0.041,314.0
2019-06-02T02:01:43,42.805,6.029,-0.035,0.046,-0.007,101.0,107.0,98.0,13.4,1505.3,323.9,-0.7,1.8,2470.034,13.33,0.057,322.7
2019-06-02T02:04:44,42.805,6.029,-0.048,0.056,-0.023,102.0,107.0,98.0,13.4,1505.3,325.6,-0.8,1.9,2470.032,13.33,0.073,319.4
2019-06-02T02:07:45,42.805,6.029,-0.034,0.038,-0.041,99.0,107.0,99.0,13.4,1505.3,325.9,-0.7,1.8,2470.037,13.33,0.05,318.2
2019-06-02T02:10:46,42.805,6.029,-0.003,0.033,0.015,101.0,106.0,98.0,13.4,1505.3,326.4,-0.8,1.8,2470.076,13.33,0.033,354.8
2019-06-02T02:13:47,42.805,6.029,-0.023,0.024,0.008,101.0,105.0,97.0,13.3,1505.3,327.6,-0.7,1.9,2470.06,13.33,0.033,316.2
2019-06-02T02:16:48,42.805,6.029,-0.048,0.014,-0.036,102.0,107.0,98.0,13.3,1505.3,324.7,-0.7,1.9,2469.999,13.33,0.05,286.3
2019-06-02T02:19:49,42.805,6.029,-0.037,0.011,-0.019,101.0,109.0,98.0,13.4,1505.3,327.9,-0.8,1.8,2470.069,13.33,0.038,286.6
2019-06-02T02:22:50,42.805,6.029,-0.003,0.025,-0.007,100.0,105.0,99.0,13.4,1505.3,326.2,-0.7,1.8,2470.024,13.33,0.025,353.2
2019-06-02T02:25:51,42.805,6.029,-0.031,0.052,0.002,101.0,105.0,98.0,13.4,1505.3,326.3,-0.8,1.9,2470.05,13.33,0.06,329.2
2019-06-02T02:28:52,42.805,6.029,-0.028,0.035,-0.03,100.0,108.0,98.0,13.3,1505.3,324.7,-0.8,1.8,2470.042,13.33,0.044,321.3
2019-06-02T02:31:53,42.805,6.029,-0.026,0.026,-0.022,100.0,108.0,97.0,13.4,1505.3,324.7,-0.7,1.8,2470.05,13.33,0.036,315.0
2019-06-02T02:34:54,42.805,6.029,-0.015,0.023,0.033,101.0,107.0,97.0,13.4,1505.3,328.1,-0.8,1.9,2470.044,13.33,0.027,326.9
2019-06-02T02:37:55,42.805,6.029,-0.045,0.045,-0.035,101.0,106.0,99.0,13.3,1505.3,325.0,-0.7,1.8,2470.082,13.33,0.063,315.0
2019-06-02T02:40:56,42.805,6.029,-0.015,0.033,-0.006,100.0,106.0,97.0,13.4,1505.3,323.6,-0.7,1.9,2470.052,13.33,0.036,335.6
2019-06-02T02:43:57,42.805,6.029,-0.031,0.014,-0.033,101.0,108.0,97.0,13.3,1505.3,328.2,-0.8,1.9,2470.086,13.33,0.034,294.3
2019-06-02T02:46:58,42.805,6.029,-0.032,0.036,-0.005,99.0,107.0,97.0,13.4,1505.3,325.6,-0.8,1.9,2470.069,13.33,0.048,318.4
2019-06-02T02:49:59,42.805,6.029,-0.032,0.016,-0.016,103.0,105.0,96.0,13.4,1505.3,323.1,-0.7,1.8,2470.052,13.33,0.035,296.6
2019-06-02T02:53:00,42.805,6.029,-0.014,0.018,-0.009,101.0,105.0,99.0,13.4,1505.3,327.2,-0.8,1.8,2470.094,13.33,0.022,322.1
2019-06-02T02:56:01,42.805,6.029,0.0,0.026,0.001,101.0,107.0,97.0,13.4,1505.3,325.8,-0.8,1.8,2470.092,13.33,0.026,0.0
2019-06-02T02:59:02,42.805,6.029,-0.032,0.037,-0.025,100.0,105.0,98.0,13.3,1505.3,324.3,-0.8,1.8,2470.084,13.33,0.048,319.1
2019-06-02T03:02:03,42.805,6.029,-0.012,0.027,-0.008,100.0,108.0,98.0,13.4,1505.3,324.0,-0.7,1.8,2470.078,13.33,0.029,336.0
2019-06-02T03:05:04,42.805,6.029,-0.007,0.043,0.0,101.0,107.0,98.0,13.4,1505.3,325.5,-0.7,1.8,2470.086,13.33,0.043,350.8
2019-06-02T03:08:05,42.805,6.029,-0.03,0.028,-0.013,102.0,107.0,97.0,13.4,1505.3,324.4,-0.7,1.8,2470.093,13.33,0.041,313.0
2019-06-02T03:11:06,42.805,6.029,-0.049,0.026,-0.062,100.0,108.0,98.0,13.4,1505.3,324.8,-0.7,1.9,2470.097,13.33,0.055,297.9
2019-06-02T03:14:07,42.805,6.029,-0.023,0.058,-0.031,103.0,106.0,98.0,13.3,1505.3,325.6,-0.8,1.8,2470.075,13.33,0.062,338.4
2019-06-02T03:17:08,42.805,6.029,-0.071,0.023,0.015,101.0,108.0,99.0,13.3,1505.3,324.7,-0.8,1.8,2470.108,13.33,0.074,287.9
2019-06-02T03:20:09,42.805,6.029,-0.009,0.041,0.0,101.0,108.0,96.0,13.3,1505.3,325.3,-0.7,1.8,2470.099,13.33,0.041,347.6
2019-06-02T03:23:10,42.805,6.029,0.0,0.04,0.0,101.0,105.0,99.0,13.4,1505.3,324.5,-0.7,1.8,2470.025,13.33,0.04,0.0
2019-06-02T03:26:11,42.805,6.029,0.007,0.03,0.007,101.0,104.0,98.0,13.4,1505.3,326.4,-0.7,1.8,2470.115,13.33,0.03,13.1
2019-06-02T03:29:12,42.805,6.029,-0.042,0.042,-0.014,102.0,104.0,98.0,13.4,1505.3,326.1,-0.8,1.8,2470.105,13.33,0.059,315.0
2019-06-02T03:32:13,42.805,6.029,0.012,0.036,-0.017,100.0,107.0,98.0,13.4,1505.3,327.8,-0.8,1.8,2470.14,13.33,0.037,18.4
2019-06-02T03:35:14,42.805,6.029,-0.025,0.021,-0.02,101.0,106.0,97.0,13.3,1505.3,325.2,-0.8,1.9,2470.098,13.33,0.032,310.0
2019-06-02T03:38:15,42.805,6.029,-0.033,0.03,-0.02,101.0,105.0,97.0,13.4,1505.3,326.6,-0.7,1.9,2470.134,13.33,0.044,312.3
2019-06-02T03:41:16,42.805,6.029,-0.038,0.021,-0.054,101.0,106.0,98.0,13.3,1505.3,327.0,-0.8,1.8,2470.103,13.33,0.043,298.9
2019-06-02T03:44:17,42.805,6.029,-0.01,0.042,0.004,102.0,106.0,97.0,13.3,1505.3,326.3,-0.7,1.9,2470.073,13.33,0.043,346.6
2019-06-02T03:47:18,42.805,6.029,-0.055,0.021,-0.05,102.0,106.0,98.0,13.4,1505.3,327.4,-0.7,1.8,2470.052,13.33,0.058,290.9
2019-06-02T03:50:19,42.805,6.029,-0.009,0.016,0.017,102.0,105.0,98.0,13.4,1505.3,324.8,-0.7,1.8,2470.098,13.33,0.018,330.6
2019-06-02T03:53:20,42.805,6.029,-0.027,0.022,-0.047,100.0,107.0,96.0,13.3,1505.3,326.3,-0.7,1.9,2470.144,13.33,0.034,309.2
2019-06-02T03:56:21,42.805,6.029,-0.018,0.027,-0.005,100.0,105.0,98.0,13.4,1505.3,325.5,-0.8,1.8,2470.117,13.33,0.032,326.3
2019-06-02T03:59:22,42.805,6.029,-0.002,0.023,-0.018,100.0,107.0,98.0,13.4,1505.3,324.9,-0.8,1.8,2470.13,13.33,0.023,355.0
2019-06-02T04:02:23,42.805,6.029,-0.026,0.04,-0.037,99.0,106.0,97.0,13.4,1505.3,323.2,-0.7,1.9,2470.154,13.33,0.047,327.0
2019-06-02T04:05:24,42.805,6.029,-0.016,0.029,-0.005,101.0,106.0,97.0,13.4,1505.3,324.3,-0.7,1.9,2470.105,13.33,0.033,331.1
2019-06-02T04:08:25,42.805,6.029,-0.026,0.033,-0.003,102.0,108.0,98.0,13.4,1505.3,323.0,-0.7,1.8,2470.076,13.33,0.042,321.8
2019-06-02T04:11:26,42.805,6.029,0.002,0.031,-0.016,101.0,105.0,98.0,13.3,1505.3,324.8,-0.7,1.9,2470.109,13.33,0.031,3.7
2019-06-02T04:14:27,42.805,6.029,-0.057,0.004,-0.056,101.0,105.0,98.0,13.4,1505.3,323.1,-0.7,1.9,2470.111,13.33,0.057,274.0
2019-06-02T04:17:28,42.805,6.029,-0.009,0.036,-0.003,103.0,106.0,97.0,13.4,1505.3,327.5,-0.7,1.9,2470.105,13.33,0.037,346.0
2019-06-02T04:20:29,42.805,6.029,-0.016,-0.002,-0.025,100.0,107.0,98.0,13.4,1505.3,324.5,-0.7,1.8,2470.235,13.33,0.016,262.9
2019-06-02T04:23:30,42.805,6.029,-0.034,0.027,-0.014,100.0,105.0,99.0,13.4,1505.3,326.1,-0.7,1.9,2470.124,13.33,0.043,308.5
2019-06-02T04:26:31,42.805,6.029,-0.028,0.013,0.0,101.0,106.0,100.0,13.4,1505.3,325.2,-0.8,1.8,2470.145,13.33,0.03,294.9
2019-06-02T04:29:32,42.805,6.029,-0.024,0.02,-0.002,100.0,105.0,98.0,13.4,1505.3,324.5,-0.8,1.8,2470.137,13.33,0.031,309.8
2019-06-02T04:32:33,42.805,6.029,-0.014,0.032,-0.001,99.0,106.0,98.0,13.4,1505.3,326.8,-0.8,1.8,2470.175,13.33,0.034,336.4
2019-06-02T04:35:34,42.805,6.029,0.006,0.035,0.012,100.0,106.0,97.0,13.4,1505.3,326.3,-0.7,1.8,2470.13,13.33,0.035,9.7
2019-06-02T04:38:35,42.805,6.029,-0.044,0.037,-0.059,101.0,106.0,97.0,13.4,1505.3,324.7,-0.7,1.9,2470.181,13.33,0.057,310.1
2019-06-02T04:41:36,42.805,6.029,0.004,0.009,-0.006,102.0,105.0,99.0,13.4,1505.3,323.3,-0.8,1.9,2470.128,13.33,0.009,24.0
2019-06-02T04:44:37,42.805,6.029,-0.014,0.014,-0.016,100.0,104.0,97.0,13.3,1505.3,325.6,-0.7,1.9,2470.167,13.33,0.019,315.0
2019-06-02T04:47:38,42.805,6.029,-0.029,0.024,0.007,100.0,107.0,100.0,13.4,1505.3,324.0,-0.8,1.8,2470.138,13.33,0.037,309.6
2019-06-02T04:50:39,42.805,6.029,-0.028,0.026,-0.018,103.0,106.0,97.0,13.4,1505.3,327.9,-0.7,1.9,2470.148,13.33,0.038,312.9
2019-06-02T04:53:40,42.805,6.029,-0.004,0.012,-0.004,101.0,106.0,99.0,13.4,1505.3,324.4,-0.8,1.8,2470.213,13.33,0.012,341.6
2019-06-02T04:56:41,42.805,6.029,-0.023,0.034,-0.018,100.0,107.0,97.0,13.4,1505.3,324.0,-0.7,1.8,2470.176,13.33,0.041,325.9
2019-06-02T04:59:42,42.805,6.029,-0.012,0.023,-0.035,102.0,105.0,98.0,13.3,1505.3,325.8,-0.8,1.8,2470.159,13.33,0.025,332.4
2019-06-02T05:02:43,42.805,6.029,-0.028,0.02,-0.012,101.0,107.0,96.0,13.4,1505.3,322.9,-0.8,1.9,2470.198,13.33,0.034,305.5
2019-06-02T05:05:44,42.805,6.029,-0.025,0.016,-0.002,100.0,105.0,97.0,13.3,1505.3,325.0,-0.8,1.8,2470.167,13.33,0.029,302.6
2019-06-02T05:08:45,42.805,6.029,-0.038,0.046,-0.026,100.0,106.0,97.0,13.3,1505.3,323.6,-0.7,1.8,2470.191,13.33,0.059,320.4
2019-06-02T05:11:46,42.805,6.029,-0.004,0.021,-0.005,101.0,107.0,97.0,13.3,1505.3,328.2,-0.7,1.9,2470.168,13.33,0.021,349.2
2019-06-02T05:14:47,42.805,6.029,-0.029,0.031,-0.046,102.0,106.0,97.0,13.3,1505.3,325.8,-0.8,1.9,2470.185,13.33,0.042,316.9
2019-06-02T05:17:48,42.805,6.029,-0.017,0.036,-0.028,102.0,106.0,97.0,13.3,1505.3,322.9,-0.7,1.8,2470.178,13.33,0.039,334.7
2019-06-02T05:20:49,42.805,6.029,-0.032,0.03,-0.025,101.0,105.0,97.0,13.4,1505.3,324.0,-0.7,1.8,2470.193,13.33,0.043,313.1
2019-06-02T05:23:50,42.805,6.029,-0.02,0.04,-0.012,100.0,105.0,97.0,13.3,1505.3,324.0,-0.7,1.8,2470.18,13.33,0.044,333.4
2019-06-02T05:26:51,42.805,6.029,-0.013,0.043,-0.01,101.0,104.0,96.0,13.4,1505.3,324.9,-0.7,1.9,2470.153,13.33,0.044,343.2
2019-06-02T05:29:52,42.805,6.029,-0.002,0.033,-0.021,101.0,106.0,97.0,13.4,1505.3,326.4,-0.8,1.8,2470.197,13.33,0.033,356.5
2019-06-02T05:32:53,42.805,6.029,-0.032,0.048,0.005,101.0,106.0,98.0,13.3,1505.3,322.7,-0.7,1.9,2470.2,13.33,0.057,326.3
2019-06-02T05:35:54,42.805,6.029,-0.028,0.047,-0.03,101.0,106.0,97.0,13.4,1505.3,324.8,-0.8,1.8,2470.194,13.33,0.054,329.2
2019-06-02T05:38:55,42.805,6.029,-0.015,0.037,0.0,101.0,105.0,97.0,13.4,1505.3,323.0,-0.7,1.8,2470.201,13.33,0.039,337.9
2019-06-02T05:41:56,42.805,6.029,-0.002,0.036,-0.014,102.0,103.0,97.0,13.4,1505.3,324.8,-0.7,1.8,2470.184,13.33,0.036,356.8
2019-06-02T05:44:57,42.805,6.029,-0.012,0.044,-0.019,98.0,107.0,98.0,13.3,1505.3,325.9,-0.8,1.8,2470.18,13.33,0.045,344.7
2019-06-02T05:47:58,42.805,6.029,-0.005,0.028,0.01,100.0,106.0,98.0,13.4,1505.3,323.0,-0.8,1.8,2470.224,13.33,0.028,349.9
2019-06-02T05:50:59,42.805,6.029,-0.018,0.037,-0.016,101.0,106.0,98.0,13.4,1505.3,326.0,-0.7,1.8,2470.208,13.33,0.041,334.1
2019-06-02T05:54:00,42.805,6.029,-0.041,0.018,-0.014,100.0,104.0,98.0,13.4,1505.3,323.4,-0.8,1.9,2470.208,13.33,0.044,293.7
2019-06-02T05:57:01,42.805,6.029,-0.029,0.026,-0.034,102.0,106.0,98.0,13.4,1505.3,324.8,-0.7,1.8,2470.169,13.33,0.038,311.9
2019-06-02T06:00:02,42.805,6.029,-0.018,0.011,-0.026,101.0,104.0,98.0,13.4,1505.3,326.3,-0.8,1.8,2470.175,13.33,0.021,301.4
2019-06-02T06:03:03,42.805,6.029,-0.053,0.034,-0.039,100.0,106.0,98.0,13.4,1505.3,325.9,-0.7,1.8,2470.159,13.33,0.062,302.7
2019-06-02T06:06:04,42.805,6.029,-0.004,0.007,-0.021,101.0,105.0,96.0,13.4,1505.3,324.4,-0.7,1.8,2470.207,13.33,0.008,330.3
2019-06-02T06:09:05,42.805,6.029,-0.024,0.013,-0.007,102.0,105.0,97.0,13.4,1505.3,324.7,-0.8,1.9,2470.19,13.33,0.027,298.4
2019-06-02T06:12:06,42.805,6.029,-0.021,0.045,-0.011,99.0,104.0,98.0,13.3,1505.3,327.0,-0.7,1.8,2470.209,13.33,0.049,335.0
2019-06-02T06:15:07,42.805,6.029,-0.017,0.028,0.007,101.0,105.0,98.0,13.3,1505.3,324.8,-0.8,1.9,2470.199,13.33,0.032,328.7
2019-06-02T06:18:08,42.805,6.029,0.004,0.031,-0.014,100.0,105.0,97.0,13.4,1505.3,323.9,-0.7,1.8,2470.169,13.33,0.031,7.3
2019-06-02T06:21:09,42.805,6.029,-0.026,0.04,-0.022,100.0,105.0,98.0,13.4,1505.3,327.5,-0.8,1.8,2470.162,13.33,0.047,327.0
2019-06-02T06:24:10,42.805,6.029,-0.007,0.022,-0.005,100.0,105.0,97.0,13.4,1505.3,326.3,-0.8,1.9,2470.192,13.33,0.023,342.4
2019-06-02T06:27:11,42.805,6.029,-0.034,0.028,-0.008,100.0,106.0,97.0,13.4,1505.3,323.3,-0.7,1.8,2470.179,13.33,0.044,309.5
2019-06-02T06:30:12,42.805,6.029,-0.002,0.021,-0.02,99.0,105.0,98.0,13.4,1505.3,327.3,-0.7,1.8,2470.195,13.33,0.021,354.6
2019-06-02T06:33:13,42.805,6.029,-0.005,0.029,-0.01,101.0,105.0,96.0,13.4,1505.3,326.0,-0.8,1.9,2470.137,13.33,0.029,350.2
2019-06-02T06:36:14,42.805,6.029,0.006,0.016,0.006,101.0,105.0,98.0,13.3,1505.3,322.8,-0.8,1.8,2470.205,13.33,0.017,20.6
2019-06-02T06:39:15,42.805,6.029,-0.041,0.013,-0.015,100.0,104.0,97.0,13.3,1505.3,328.0,-0.8,1.8,2470.176,13.33,0.043,287.6
2019-06-02T06:42:16,42.805,6.029,-0.029,0.033,-0.033,100.0,106.0,99.0,13.4,1505.3,325.0,-0.7,1.9,2470.223,13.33,0.043,318.7
2019-06-02T06:45:17,42.805,6.029,-0.005,0.024,-0.043,100.0,105.0,96.0,13.3,1505.3,326.3,-0.8,1.9,2470.171,13.33,0.024,348.2
2019-06-02T06:48:18,42.805,6.029,-0.013,0.018,-0.013,101.0,104.0,97.0,13.4,1505.3,324.6,-0.8,1.8,2470.206,13.33,0.022,324.2
2019-06-02T06:51:19,42.805,6.029,-0.008,0.02,-0.007,100.0,106.0,98.0,13.4,1505.3,326.2,-0.7,1.9,2470.234,13.33,0.021,338.2
2019-06-02T06:54:20,42.805,6.029,-0.005,0.022,0.009,101.0,104.0,97.0,13.4,1505.3,325.4,-0.8,1.8,2470.19,13.33,0.022,347.2
2019-06-02T06:57:21,42.805,6.029,-0.019,0.013,-0.007,99.0,105.0,98.0,13.4,1505.3,324.3,-0.8,1.8,2470.16,13.33,0.023,304.4
2019-06-02T07:00:22,42.805,6.029,0.008,0.031,0.0,98.0,105.0,101.0,13.4,1505.3,324.3,-0.8,1.8,2470.198,13.33,0.032,14.5
2019-06-02T07:03:23,42.805,6.029,-0.031,0.036,-0.02,101.0,105.0,98.0,13.4,1505.3,326.9,-0.7,1.8,2470.152,13.33,0.047,319.3
2019-06-02T07:06:24,42.805,6.029,0.013,0.03,-0.024,100.0,105.0,98.0,13.4,1505.3,327.5,-0.7,1.8,2470.173,13.33,0.032,23.4
2019-06-02T07:09:25,42.805,6.029,-0.011,0.031,-0.023,99.0,107.0,98.0,13.4,1505.3,324.9,-0.8,1.8,2470.226,13.33,0.032,340.5
2019-06-02T07:12:26,42.805,6.029,-0.024,0.008,-0.026,101.0,106.0,98.0,13.3,1505.3,324.3,-0.7,1.9,2470.211,13.33,0.025,288.4
2019-06-02T07:15:27,42.805,6.029,0.009,0.021,-0.02,100.0,105.0,98.0,13.4,1505.3,325.6,-0.8,1.9,2470.151,13.33,0.022,23.2
2019-06-02T07:18:28,42.805,6.029,-0.016,0.008,-0.023,100.0,104.0,99.0,13.4,1505.3,328.1,-0.7,1.8,2470.164,13.33,0.017,296.6
2019-06-02T07:21:29,42.805,6.029,-0.003,0.025,0.003,101.0,105.0,97.0,13.4,1505.3,325.6,-0.8,1.9,2470.205,13.33,0.025,353.2
2019-06-02T07:24:30,42.805,6.029,-0.013,0.021,-0.012,100.0,105.0,97.0,13.4,1505.3,324.0,-0.7,1.8,2470.164,13.33,0.024,328.2
2019-06-02T07:27:31,42.805,6.029,-0.002,0.037,0.009,99.0,103.0,98.0,13.4,1505.3,326.7,-0.8,1.9,2470.148,13.33,0.037,356.9
2019-06-02T07:30:32,42.805,6.029,-0.026,0.036,-0.033,99.0,107.0,98.0,13.4,1505.3,325.4,-0.8,1.9,2470.237,13.33,0.044,324.2
2019-06-02T07:33:33,42.805,6.029,-0.006,0.019,0.028,100.0,105.0,97.0,13.4,1505.3,326.2,-0.8,1.8,2470.161,13.33,0.019,342.5
2019-06-02T07:36:34,42.805,6.029,-0.013,0.021,-0.042,100.0,106.0,96.0,13.4,1505.3,326.1,-0.8,1.8,2470.212,13.33,0.024,328.2
2019-06-02T07:39:35,42.805,6.029,-0.021,0.026,-0.023,101.0,105.0,98.0,13.4,1505.3,326.2,-0.8,1.8,2470.167,13.33,0.033,321.1
2019-06-02T07:42:36,42.805,6.029,-0.01,0.027,-0.037,101.0,104.0,99.0,13.4,1505.3,325.2,-0.8,1.8,2470.158,13.33,0.028,339.7
2019-06-02T07:45:37,42.805,6.029,-0.025,0.01,-0.041,100.0,106.0,98.0,13.4,1505.3,323.6,-0.7,1.8,2470.226,13.33,0.026,291.8
2019-06-02T07:48:38,42.805,6.029,-0.009,0.027,-0.034,101.0,106.0,98.0,13.3,1505.3,323.2,-0.7,1.9,2470.225,13.33,0.028,341.6
2019-06-02T07:51:39,42.805,6.029,-0.015,0.034,0.002,100.0,104.0,97.0,13.3,1505.3,324.4,-0.7,1.8,2470.179,13.33,0.037,336.2
2019-06-02T07:54:40,42.805,6.029,-0.038,0.037,-0.017,101.0,103.0,99.0,13.4,1505.3,326.3,-0.8,1.9,2470.149,13.33,0.053,314.2
2019-06-02T07:57:41,42.805,6.029,-0.021,0.027,-0.042,101.0,107.0,97.0,13.4,1505.3,327.3,-0.7,1.8,2470.163,13.33,0.034,322.1
2019-06-02T08:00:42,42.805,6.029,-0.018,0.028,-0.017,101.0,105.0,97.0,13.4,1505.3,324.9,-0.7,1.8,2470.125,13.33,0.033,327.3
2019-06-02T08:03:43,42.805,6.029,-0.005,0.028,-0.029,100.0,105.0,97.0,13.4,1505.3,325.0,-0.7,1.8,2470.177,13.33,0.028,349.9
2019-06-02T08:06:44,42.805,6.029,-0.04,0.039,-0.006,102.0,104.0,97.0,13.4,1505.3,323.8,-0.7,1.8,2470.12,13.33,0.055,314.3
2019-06-02T08:09:45,42.805,6.029,-0.014,0.023,-0.022,100.0,105.0,98.0,13.4,1505.3,327.8,-0.8,1.8,2470.181,13.33,0.026,328.7
2019-06-02T08:12:46,42.805,6.029,-0.003,0.045,0.0,100.0,107.0,101.0,13.4,1505.3,326.0,-0.7,1.8,2470.16,13.33,0.045,356.2
2019-06-02T08:15:47,42.805,6.029,-0.014,0.024,-0.041,100.0,104.0,98.0,13.4,1505.3,323.5,-0.8,1.8,2470.12,13.33,0.027,329.7
2019-06-02T08:18:48,42.805,6.029,-0.015,0.033,-0.03,102.0,105.0,97.0,13.4,1505.3,327.9,-0.8,1.9,2470.125,13.33,0.036,335.6
2019-06-02T08:21:49,42.805,6.029,-0.03,0.037,-0.024,103.0,104.0,98.0,13.4,1505.3,324.4,-0.7,1.8,2470.064,13.33,0.047,321.0
2019-06-02T08:24:50,42.805,6.029,-0.008,0.03,-0.004,101.0,105.0,98.0,13.4,1505.3,325.3,-0.8,1.9,2470.141,13.33,0.031,345.1
2019-06-02T08:27:51,42.805,6.029,-0.02,0.022,-0.026,101.0,106.0,97.0,13.4,1505.3,326.6,-0.7,1.8,2470.091,13.33,0.029,317.7
2019-06-02T08:30:52,42.805,6.029,-0.035,0.028,-0.027,100.0,107.0,98.0,13.3,1505.3,325.5,-0.7,1.8,2470.147,13.33,0.044,308.7
2019-06-02T08:33:53,42.805,6.029,-0.015,0.041,-0.024,101.0,105.0,97.0,13.4,1505.3,324.6,-0.7,1.9,2470.16,13.33,0.043,339.9
2019-06-02T08:36:54,42.805,6.029,-0.044,0.019,-0.037,101.0,105.0,98.0,13.4,1505.3,325.9,-0.8,1.8,2470.114,13.33,0.047,293.4
2019-06-02T08:39:55,42.805,6.029,-0.016,0.024,-0.039,101.0,104.0,98.0,13.4,1505.3,324.4,-0.8,1.9,2470.095,13.33,0.028,326.3
2019-06-02T08:42:56,42.805,6.029,-0.003,0.022,-0.028,100.0,106.0,98.0,13.3,1505.3,326.4,-0.8,1.9,2470.111,13.33,0.022,352.2
2019-06-02T08:45:57,42.805,6.029,-0.038,0.046,-0.01,101.0,107.0,97.0,13.3,1505.3,326.5,-0.8,1.9,2470.13,13.33,0.059,320.4
2019-06-02T08:48:58,42.805,6.029,-0.013,0.038,-0.003,100.0,106.0,96.0,13.4,1505.3,328.0,-0.8,1.8,2470.157,13.33,0.04,341.1
2019-06-02T08:51:59,42.805,6.029,-0.043,0.042,-0.037,100.0,107.0,97.0,13.3,1505.3,326.5,-0.7,1.9,2470.174,13.33,0.06,314.3
2019-06-02T08:55:00,42.805,6.029,0.002,0.019,0.013,102.0,106.0,99.0,13.4,1505.3,327.4,-0.8,1.8,2470.111,13.33,0.019,6.0
2019-06-02T08:58:01,42.805,6.029,-0.033,-0.008,-0.034,99.0,104.0,98.0,13.3,1505.3,325.2,-0.8,1.9,2470.108,13.33,0.033,256.4
2019-06-02T09:01:02,42.805,6.029,0.016,0.023,-0.011,101.0,106.0,96.0,13.3,1505.3,322.6,-0.8,1.8,2470.101,13.33,0.028,34.8
2019-06-02T09:04:03,42.805,6.029,-0.033,0.037,-0.009,102.0,105.0,97.0,13.4,1505.3,327.6,-0.7,1.8,2470.113,13.33,0.049,318.3
2019-06-02T09:07:04,42.805,6.029,-0.024,0.039,-0.001,101.0,106.0,99.0,13.4,1505.3,324.6,-0.7,1.8,2470.099,13.33,0.045,328.4
2019-06-02T09:10:05,42.805,6.029,-0.022,0.025,-0.012,104.0,105.0,98.0,13.4,1505.3,323.0,-0.7,1.9,2470.091,13.33,0.033,318.7
2019-06-02T09:13:06,42.805,6.029,-0.019,0.021,-0.005,100.0,106.0,99.0,13.4,1505.3,326.5,-0.8,1.8,2470.151,13.33,0.028,317.9
2019-06-02T09:16:07,42.805,6.029,-0.012,0.041,0.011,101.0,104.0,99.0,13.4,1505.3,322.7,-0.7,1.9,2470.078,13.33,0.042,343.7
2019-06-02T09:19:08,42.805,6.029,-0.009,0.017,-0.061,101.0,105.0,96.0,13.4,1505.3,325.5,-0.8,1.8,2470.115,13.33,0.019,332.1
2019-06-02T09:22:09,42.805,6.029,-0.056,0.035,-0.044,103.0,105.0,98.0,13.4,1505.3,326.1,-0.8,1.8,2470.114,13.33,0.066,302.0
2019-06-02T09:25:10,42.805,6.029,-0.029,0.043,0.005,101.0,106.0,98.0,13.3,1505.3,328.1,-0.8,1.8,2470.086,13.33,0.051,326.0
2019-06-02T09:28:11,42.805,6.029,-0.044,0.038,-0.031,100.0,106.0,98.0,13.4,1505.3,325.2,-0.7,1.9,2470.094,13.33,0.058,310.8
2019-06-02T09:31:12,42.805,6.029,-0.016,0.023,-0.039,101.0,107.0,98.0,13.3,1505.3,323.3,-0.7,1.8,2470.095,13.33,0.028,325.2
2019-06-02T09:34:13,42.805,6.029,-0.021,0.039,-0.003,101.0,106.0,98.0,13.3,1505.3,327.9,-0.8,1.8,2470.124,13.33,0.044,331.7